{"data":{"norad_id":61007,"intl_designator":"2024-158T","name":"STARLINK-32360","alt_names":[],"object_type":"PAYLOAD","status":"ACTIVE","operator":null,"country":"US","launch_date":"2024-09-05","launch_site_code":"AFETR","launch_vehicle":null,"mission":null,"orbit_class":"UNKNOWN","rcs_meters":null,"size_class":null,"mass_kg":null,"dimensions":null,"purposes":["comms"],"wikipedia_slug":null,"has_3d_model":false,"image_url":null,"decayed_at":null,"tle_current":{"epoch":"2026-05-25T03:52:22.541664Z","epoch_age_seconds":64147,"freshness":"FRESH","line1":"1 61007U 24158T   26145.16137201  .00001233  00000+0  47629-4 0  9993","line2":"2 61007  53.1626  54.7357 0001242  91.9140 268.2005 15.34395395 97504","mean_motion":15.34395395,"eccentricity":0.0001242,"inclination_deg":53.1626,"raan_deg":54.7357,"arg_perigee_deg":91.914,"mean_anomaly_deg":268.2005,"bstar":4.7629e-5,"rev_number":9750,"period_min":93.848039735547,"perigee_km":461.86729321403,"apogee_km":463.56656132956,"semimajor_km":6840.8539272718,"source":"CELESTRAK","updated_at":"2026-05-25T13:38:19.351046Z"}}}